Tracking 18840 objects as of 20-November-2017
HD Live streaming from Space Station
objects crossing your sky now

FENGYUN 1C DEB

Track FENGYUN 1C DEB now!
10-day predictions


NORAD ID: 36272
Int'l Code: 1999-025DWZ
Perigee: 728.7 km
Apogee: 983.9 km
Inclination: 99.1 °
Period: 101.9 minutes
Semi major axis: 7227 km
RCS: 0.0136 m2 (small)
Launch date: May 10, 1999
Source: People's Republic of China (PRC)
Launch site: Taiyaun Space Center, China (TSC)

Note: This is SATELLITE DEBRIS
aabbcc
Your satellite tracking list
Your tracking list is empty




NASA's NSSDC Master Catalog

Two Line Element Set (TLE):
1 36272U 99025DWZ 17322.13114498  .00000245  00000-0  13534-3 0  9991
2 36272  99.0667  75.6875 0176498 282.1105  76.0341 14.12988838472658
Source of the keplerian elements: AFSPC